Location: Unspecified
(51.4874°N, 0.0000°E)
Time: 14:09:50
(UTC+00:00)

CZ-4 R/B DEB - Visible Passes

Search period start: 04 April 2026 00:00
Search period end: 14 April 2026 00:00
Orbit: 859 x 1082 km, 99.1° (Epoch: 28 March)

Date Brightness Start Highest point End Pass type
(mag) Time Alt. Az. Time Alt. Az. Time Alt. Az.
4 Apr ? 00:17:33 10° N 00:22:45 41° WNW 00:22:45 41° WNW visible
4 Apr ? 02:04:01 10° NW 02:04:42 10° NW 02:05:22 10° NW visible
4 Apr ? 21:17:08 10° ENE 21:17:27 10° ENE 21:17:27 10° ENE visible
4 Apr ? 22:57:27 10° NNE 23:02:00 51° NE 23:02:00 51° NE visible
5 Apr ? 00:41:09 10° N 00:46:05 30° WNW 00:46:34 29° WNW visible
5 Apr ? 21:38:51 10° NE 21:41:16 16° ENE 21:41:16 16° ENE visible
5 Apr ? 23:20:45 10° NNE 23:25:48 68° NNE 23:25:48 68° NNE visible
6 Apr ? 01:04:51 10° N 01:09:10 22° NW 01:10:22 21° WNW visible
6 Apr ? 22:01:30 10° NE 22:05:04 24° ENE 22:05:04 24° ENE visible
6 Apr ? 23:44:09 10° NNE 23:49:37 65° NW 23:49:37 65° NW visible
7 Apr ? 01:28:43 10° NNW 01:32:11 16° NW 01:34:11 14° WNW visible
7 Apr ? 22:24:29 10° NNE 22:28:53 35° ENE 22:28:53 35° ENE visible
8 Apr ? 00:07:37 10° N 00:13:13 47° WNW 00:13:26 47° WNW visible
8 Apr ? 01:52:59 10° NNW 01:55:07 12° NW 01:57:15 10° WNW visible
8 Apr ? 22:47:37 10° NNE 22:52:41 51° ENE 22:52:41 51° ENE visible
9 Apr ? 00:31:10 10° N 00:36:24 34° WNW 00:37:14 33° WNW visible
9 Apr ? 21:29:22 10° NE 21:31:57 15° ENE 21:31:57 15° ENE visible
9 Apr ? 23:10:53 10° NNE 23:16:30 74° ENE 23:16:30 74° ENE visible
10 Apr ? 00:54:48 10° N 00:59:31 25° NW 01:01:03 23° WNW visible
10 Apr ? 21:51:51 10° NE 21:55:45 22° E 21:55:45 22° E visible
10 Apr ? 23:34:15 10° NNE 23:40:13 77° WNW 23:40:18 77° W visible
11 Apr ? 01:18:34 10° N 01:22:33 19° NW 01:24:51 15° WNW visible
11 Apr ? 22:14:44 10° NNE 22:19:33 32° E 22:19:33 32° E visible
11 Apr ? 23:57:41 10° N 00:03:30 55° WNW 00:04:07 53° W visible
12 Apr ? 01:42:35 10° NNW 01:45:30 14° NW 01:48:30 10° WNW visible
12 Apr ? 22:37:49 10° NNE 22:43:22 47° E 22:43:22 47° E visible
13 Apr ? 00:21:12 10° N 00:26:42 40° WNW 00:27:55 36° W visible
13 Apr ? 02:07:31 10° NNW 02:08:23 10° NW 02:09:16 10° NW visible
13 Apr ? 21:20:01 10° NE 21:22:37 13° E 21:22:37 13° E visible
13 Apr ? 23:01:02 10° NNE 23:07:05 67° ESE 23:07:10 67° ESE visible
